Location: Observatory
(49.4490°N, 2.6360°W)
Time: 01:30:54
(UTC+01:00)

DIWATA 2B (PO-101) - Pass Details

Date: 27 April 2025
Orbit: 567 x 578 km, 98.1° (Epoch: 16 May)

Event Time Altitude Azimuth Distance (km) Brightness Sun altitude
Rises 03:50:00 0° 105° (ESE) 2,767 ? -17.3°
Reaches altitude 10° 03:54:30 10° 57° (ENE) 1,875 ? -16.8°
Maximum altitude 03:54:41 10° 55° (NE) 1,874 ? -16.8°
Drops below altitude 10° 03:54:51 10° 52° (NE) 1,875 ? -16.8°
Sets 03:59:22 0° 5° (N) 2,780 ? -16.3°
